Wind_Speed
28 27 26 25 24 24 23 23 22 22 21 21 21 21 21 22 21 20 20 20 20 21 22 23 24 24 25 26 26 25 24 23 22 21 20 19 18 18 18 18 17 16 15
30 29 28 27 26 25 24 23 23 22 22 21 20 20 20 20 19 18 18 18 19 20 21 22 22 24 25 27 28 28 28 27 26 25 23 22 21 21 20 20 19 19 18
30 29 28 27 26 24 24 23 23 22 22 20 20 19 18 18 17 17 17 17 17 18 19 20 21 22 23 26 28 28 30 30 29 29 27 26 24 23 22 22 22 21 20
30 28 27 27 25 25 24 23 22 22 21 21 20 19 18 17 17 16 16 16 16 16 17 17 19 21 22 24 25 27 29 32 32 31 31 30 28 27 25 24 24 24 23
29 29 28 26 25 24 24 23 22 22 21 20 20 20 19 18 18 17 16 16 15 15 16 16 17 18 20 22 23 25 27 29 31 33 34 33 32 31 29 28 27 26 25
29 28 26 25 23 23 24 23 22 21 21 21 21 21 21 20 19 18 17 16 15 15 15 15 15 17 19 21 23 24 25 28 30 32 34 35 35 35 33 32 30 29 27
26 25 24 25 24 24 24 24 23 22 22 22 22 22 22 21 21 20 19 17 16 15 15 15 15 16 17 20 22 23 25 26 28 31 32 34 36 36 36 36 34 32 31
25 25 25 25 25 25 25 25 25 24 24 23 23 23 23 22 22 21 20 19 18 16 16 15 15 16 17 19 21 23 25 27 28 30 31 33 35 36 37 38 37 35 34
27 27 27 26 26 26 26 26 26 26 26 25 25 24 24 24 24 23 22 20 19 18 18 17 16 16 17 18 20 22 25 27 28 29 31 32 34 36 36 37 39 38 37
29 29 28 28 28 28 28 29 28 28 28 28 27 27 26 26 25 25 24 23 21 20 19 19 19 18 19 19 20 22 24 26 28 29 31 31 33 35 36 36 37 38 39
32 31 31 31 31 31 32 32 32 32 31 31 30 30 29 28 28 27 26 25 23 22 21 21 21 20 20 20 21 22 23 24 26 29 30 31 32 33 34 35 36 37 38
38 37 37 37 37 37 36 36 36 36 35 34 34 33 32 31 30 28 28 27 26 24 23 22 22 22 21 21 21 22 22 23 26 28 30 31 32 33 33 33 34 35 36
45 45 44 44 43 43 42 41 40 40 39 38 38 37 35 34 33 31 29 29 28 27 25 24 24 23 22 22 22 22 23 23 24 26 28 29 30 32 32 33 34 34 35
51 51 51 50 50 49 48 47 46 45 44 43 42 40 39 38 36 34 32 30 29 29 28 26 25 24 23 23 22 23 23 23 23 25 26 27 28 30 31 31 32 34 34
57 56 56 56 56 55 55 54 52 51 49 48 47 45 43 42 40 38 36 34 31 30 29 28 26 25 24 23 23 23 23 22 23 24 24 25 27 28 30 31 31 32 33
61 61 61 61 61 61 60 59 59 57 56 54 52 51 48 46 45 42 40 37 34 32 30 30 28 26 25 24 23 23 23 23 22 22 23 24 25 27 29 30 30 31 32
62 64 65 66 66 66 65 65 64 63 61 60 58 56 54 51 49 46 43 41 37 34 32 31 30 28 26 25 24 23 23 23 22 22 23 24 24 24 26 27 28 29 30
55 58 60 63 66 69 70 69 68 68 66 64 62 61 59 56 53 50 47 44 41 37 34 32 31 29 27 25 24 24 23 23 22 22 22 22 23 24 24 25 26 25 26
47 49 51 55 59 63 67 70 72 71 70 68 66 64 62 60 57 54 50 47 44 41 37 34 32 30 28 26 25 24 23 22 22 21 22 22 23 23 23 23 24 24 24
40 40 42 45 49 53 58 64 69 72 73 72 70 68 65 63 60 57 54 50 47 43 40 37 34 31 29 27 25 24 23 22 21 21 21 22 22 22 22 22 23 23 23
38 36 35 35 37 42 47 52 57 64 69 72 72 70 67 64 61 59 56 52 49 46 43 39 35 32 30 28 25 24 24 22 21 21 21 21 22 22 23 22 23 23 23
38 35 33 32 32 33 36 40 44 50 57 63 68 69 67 65 61 59 57 54 51 48 44 41 37 34 31 29 27 25 24 23 22 22 22 22 21 22 23 23 23 23 23
41 38 36 34 32 31 31 33 35 38 43 49 57 62 65 64 61 59 57 55 52 49 45 42 38 35 32 30 28 26 25 24 22 22 22 21 21 22 22 22 22 22 22
42 40 38 36 34 32 31 30 31 33 34 38 44 51 58 61 60 58 56 54 52 49 46 43 39 36 34 31 28 27 25 24 22 22 22 21 20 20 21 21 22 22 21
41 40 39 36 34 33 32 31 30 30 31 34 36 41 48 54 57 57 55 53 52 49 47 43 40 37 35 32 29 27 25 23 22 21 21 20 20 20 20 21 21 21 21
39 39 38 36 35 34 33 32 31 30 29 30 33 35 40 46 51 54 54 52 51 48 46 44 41 38 35 32 29 27 25 24 23 22 21 21 20 20 20 20 20 20 19
Wind_Direction
267 269 271 273 274 272 271 270 270 269 269 269 269 268 269 268 268 267 267 266 264 262 262 262 260 257 254 249 246 244 242 239 236 233 232 231 229 228 228 227 224 222 221
262 266 269 271 272 270 269 269 269 269 269 269 268 267 266 266 264 263 266 266 266 265 264 263 263 263 259 255 250 247 245 241 239 237 235 235 234 233 232 229 227 227 226
262 265 267 269 271 270 269 267 267 267 267 266 265 264 263 261 260 260 263 265 267 267 267 265 264 263 260 258 254 251 248 245 243 240 238 237 236 235 234 232 230 229 229
259 265 265 268 267 268 267 264 264 264 263 260 259 259 259 258 257 260 263 266 268 269 270 270 269 266 262 260 259 254 252 250 247 244 241 239 237 236 236 234 233 232 232
257 263 264 265 264 263 261 259 259 258 257 256 254 254 254 254 255 259 263 267 269 273 274 274 273 270 267 265 263 260 257 254 251 246 244 242 239 238 237 236 234 234 233
257 262 264 262 261 258 256 256 254 252 252 252 251 251 251 251 252 254 258 263 267 274 279 280 278 276 271 266 267 267 262 258 255 250 247 245 242 240 239 238 236 236 235
261 261 263 261 259 257 256 254 251 249 248 248 249 249 248 249 250 253 256 259 263 269 276 280 282 281 277 274 272 270 266 262 259 254 250 247 244 243 242 240 238 236 235
265 264 264 260 258 256 256 254 250 248 247 247 248 248 248 248 249 252 255 258 262 267 272 277 282 285 283 280 278 273 269 266 262 256 252 250 246 245 245 242 239 239 237
270 266 264 262 257 255 255 253 249 247 247 247 245 246 247 248 250 251 253 257 262 266 270 274 280 285 286 285 281 278 273 269 264 260 257 254 250 247 245 244 242 239 238
274 268 264 261 259 257 255 252 250 249 247 246 244 244 245 247 251 254 253 256 261 267 271 274 278 284 287 287 286 281 277 271 265 262 259 256 252 250 248 246 243 241 240
272 268 265 262 260 259 256 253 251 249 248 248 245 243 244 246 249 253 256 258 261 265 270 274 278 282 286 288 288 286 281 273 266 263 260 258 253 250 249 248 246 243 241
267 265 263 262 260 259 256 253 252 250 248 248 246 244 244 245 247 250 255 260 263 265 268 272 277 281 285 287 288 288 284 276 268 265 262 259 254 251 249 247 246 244 243
265 262 260 258 257 256 255 253 251 251 249 247 246 245 245 245 245 247 251 256 261 264 266 269 275 280 283 285 287 288 286 280 272 268 265 260 256 251 249 248 247 245 244
264 261 259 256 255 254 253 252 250 249 249 248 247 246 245 245 246 246 247 251 257 263 265 268 271 276 281 283 286 287 285 281 274 270 265 259 254 249 248 247 245 244 244
264 261 258 256 254 252 251 250 249 247 247 247 247 246 246 246 245 246 246 248 252 257 262 266 269 273 278 282 283 286 284 280 275 271 265 259 254 249 247 246 244 243 242
264 261 259 257 254 252 250 248 247 246 245 245 244 245 245 245 246 245 246 247 249 253 256 262 267 270 274 278 280 283 282 278 274 271 266 259 256 251 247 246 245 244 242
265 261 258 255 253 251 249 247 246 245 244 243 242 242 243 244 244 245 246 246 248 249 252 256 262 267 271 274 277 279 279 277 273 270 265 261 258 254 250 246 245 244 243
268 264 260 256 253 250 248 247 245 244 243 242 241 240 240 241 242 243 244 245 246 247 249 251 256 262 267 270 274 276 275 274 270 267 264 261 259 255 253 248 245 244 243
270 266 262 258 255 251 248 246 245 243 242 241 240 240 239 239 239 240 241 243 244 245 246 248 252 257 262 266 269 271 271 271 268 266 263 262 259 255 251 248 246 245 245
273 269 265 261 258 254 251 247 245 243 241 240 239 238 238 237 237 238 239 240 241 243 244 246 249 252 257 261 265 265 266 265 265 264 263 261 258 253 250 249 248 247 245
270 268 266 263 260 257 254 250 247 244 242 240 239 238 237 236 236 236 236 236 238 240 241 243 246 249 252 255 258 259 260 262 262 262 261 260 257 253 250 248 248 247 246
265 264 262 262 262 259 255 251 249 246 243 240 239 237 236 235 234 233 233 234 235 236 238 240 242 245 248 250 252 254 255 258 259 260 259 259 255 252 250 248 247 247 246
260 258 259 259 260 259 256 252 248 247 244 241 238 236 234 233 232 231 231 231 231 232 234 235 238 240 243 244 247 249 250 253 256 257 257 256 254 251 248 245 245 245 246
256 254 255 255 255 254 253 253 250 247 245 242 239 236 234 231 229 228 228 228 228 229 230 231 233 235 237 240 243 245 244 250 254 254 255 253 251 247 245 242 242 243 244
254 251 250 251 251 250 250 250 250 249 247 244 240 237 233 230 228 226 225 225 225 225 226 227 228 230 232 235 238 240 242 245 247 248 249 249 246 245 244 242 242 243 246
251 248 247 247 247 246 247 248 248 248 247 244 239 235 231 227 225 224 222 221 221 221 222 222 223 225 228 230 233 234 236 238 241 244 245 244 243 242 241 240 241 242 241
Height
5856 5856 5855 5855 5855 5855 5856 5856 5856 5857 5857 5857 5857 5858 5858 5858 5859 5859 5860 5861 5861 5862 5863 5864 5866 5867 5868 5869 5871 5873 5875 5877 5878 5880 5882 5884 5885 5887 5889 5891 5892 5894 5896
5848 5848 5849 5849 5849 5849 5849 5850 5851 5851 5851 5852 5852 5852 5853 5853 5854 5854 5855 5856 5856 5857 5858 5859 5860 5862 5863 5863 5865 5867 5870 5872 5873 5875 5877 5880 5882 5883 5885 5887 5889 5891 5893
5840 5841 5841 5842 5843 5843 5843 5844 5845 5845 5846 5846 5847 5848 5848 5849 5850 5850 5851 5851 5852 5853 5853 5854 5855 5856 5857 5857 5859 5861 5864 5866 5868 5870 5872 5875 5877 5879 5881 5883 5885 5887 5889
5831 5833 5834 5835 5836 5837 5837 5838 5839 5840 5840 5841 5841 5843 5843 5844 5845 5846 5846 5847 5847 5848 5849 5849 5850 5851 5851 5852 5853 5855 5857 5860 5862 5864 5866 5869 5872 5875 5877 5879 5881 5883 5885
5823 5825 5826 5827 5828 5830 5831 5832 5833 5834 5834 5835 5836 5837 5839 5839 5841 5842 5842 5843 5843 5844 5844 5845 5845 5845 5846 5846 5848 5849 5851 5853 5855 5857 5860 5862 5865 5868 5871 5874 5876 5878 5881
5816 5818 5819 5820 5821 5823 5824 5825 5827 5828 5829 5830 5831 5832 5834 5835 5836 5837 5838 5839 5839 5840 5840 5840 5840 5840 5841 5841 5842 5843 5845 5847 5849 5851 5853 5855 5858 5861 5865 5868 5871 5873 5876
5810 5811 5812 5814 5815 5816 5817 5818 5820 5821 5823 5824 5825 5827 5828 5830 5831 5832 5834 5835 5836 5836 5836 5836 5836 5836 5836 5837 5837 5838 5839 5840 5842 5844 5846 5849 5851 5854 5857 5861 5864 5867 5870
5804 5805 5807 5807 5808 5809 5810 5811 5813 5814 5816 5818 5819 5821 5823 5825 5826 5827 5829 5830 5831 5832 5832 5832 5832 5832 5832 5831 5832 5832 5833 5834 5835 5837 5839 5841 5844 5847 5850 5853 5856 5860 5863
5798 5798 5799 5800 5801 5802 5803 5804 5806 5807 5809 5811 5812 5815 5816 5818 5820 5822 5823 5825 5826 5827 5827 5828 5828 5827 5827 5827 5826 5826 5826 5827 5828 5829 5831 5834 5836 5839 5842 5845 5848 5852 5856
5791 5791 5792 5793 5794 5794 5795 5797 5798 5800 5802 5804 5805 5807 5810 5811 5813 5815 5817 5819 5820 5821 5822 5822 5822 5822 5822 5821 5821 5820 5820 5820 5821 5822 5824 5826 5828 5831 5834 5837 5840 5844 5848
5783 5783 5783 5784 5785 5786 5787 5789 5790 5792 5794 5796 5798 5800 5802 5804 5806 5808 5809 5812 5813 5814 5816 5816 5816 5816 5816 5815 5815 5814 5814 5813 5814 5815 5816 5818 5820 5823 5825 5828 5831 5835 5839
5773 5773 5773 5774 5775 5776 5777 5779 5781 5783 5785 5787 5790 5792 5794 5797 5799 5801 5802 5804 5805 5807 5809 5810 5810 5810 5809 5809 5808 5808 5807 5807 5807 5807 5808 5810 5812 5815 5817 5820 5823 5827 5830
5759 5760 5761 5762 5763 5764 5766 5767 5770 5772 5774 5777 5779 5782 5785 5788 5791 5793 5795 5796 5798 5800 5801 5803 5803 5803 5803 5802 5802 5801 5800 5800 5800 5800 5801 5803 5804 5806 5809 5812 5815 5819 5822
5742 5743 5745 5746 5748 5750 5752 5754 5757 5759 5762 5765 5768 5771 5774 5777 5780 5784 5786 5789 5790 5791 5793 5795 5796 5797 5797 5796 5795 5795 5794 5794 5794 5794 5794 5796 5797 5799 5802 5804 5807 5811 5814
5723 5724 5725 5728 5730 5732 5735 5739 5742 5745 5748 5752 5755 5759 5762 5766 5769 5773 5776 5780 5783 5784 5785 5786 5788 5789 5790 5789 5789 5788 5788 5787 5787 5787 5788 5789 5790 5792 5794 5797 5800 5803 5806
5700 5702 5704 5706 5709 5713 5716 5720 5724 5728 5732 5736 5740 5745 5749 5753 5757 5761 5765 5769 5772 5775 5777 5778 5780 5781 5782 5782 5782 5782 5781 5781 5781 5781 5782 5783 5784 5786 5788 5790 5793 5795 5798
5677 5678 5680 5683 5686 5690 5694 5699 5704 5708 5714 5719 5724 5729 5734 5739 5744 5747 5752 5757 5761 5765 5768 5770 5771 5773 5774 5775 5775 5775 5775 5775 5775 5775 5776 5777 5778 5780 5781 5784 5786 5788 5791
5653 5654 5656 5658 5662 5666 5671 5676 5681 5687 5693 5699 5706 5712 5718 5723 5729 5734 5739 5744 5749 5754 5758 5761 5763 5765 5766 5767 5768 5768 5768 5768 5769 5770 5771 5772 5773 5774 5775 5777 5780 5782 5784
5632 5633 5634 5635 5638 5642 5646 5652 5658 5664 5671 5678 5686 5693 5700 5707 5713 5719 5725 5731 5737 5742 5747 5751 5754 5756 5758 5760 5761 5761 5762 5762 5763 5764 5765 5766 5767 5768 5770 5772 5774 5776 5778
5614 5614 5615 5616 5618 5620 5624 5628 5634 5641 5648 5657 5665 5673 5681 5689 5697 5704 5711 5718 5724 5730 5736 5741 5745 5748 5750 5752 5753 5754 5755 5756 5757 5758 5759 5760 5761 5763 5765 5766 5768 5770 5773
5598 5599 5599 5600 5601 5603 5605 5608 5613 5619 5626 5634 5643 5653 5662 5671 5680 5689 5697 5704 5711 5718 5724 5730 5735 5739 5742 5744 5746 5747 5748 5749 5751 5752 5753 5755 5756 5758 5759 5761 5763 5765 5767
5583 5584 5586 5587 5588 5590 5591 5593 5596 5601 5606 5614 5623 5632 5643 5653 5663 5672 5681 5690 5698 5705 5713 5719 5725 5729 5733 5736 5738 5740 5742 5743 5745 5746 5747 5749 5750 5752 5754 5755 5757 5759 5762
5567 5570 5572 5574 5576 5578 5579 5581 5584 5588 5592 5597 5604 5613 5624 5635 5645 5656 5666 5675 5684 5693 5701 5708 5714 5720 5724 5727 5730 5732 5734 5737 5739 5740 5742 5743 5744 5746 5748 5750 5751 5754 5756
5551 5555 5558 5561 5564 5566 5569 5571 5573 5577 5581 5585 5590 5597 5607 5617 5629 5640 5651 5661 5671 5681 5690 5697 5705 5710 5715 5718 5722 5725 5727 5730 5732 5734 5736 5737 5738 5740 5742 5744 5746 5748 5750
5535 5539 5544 5548 5551 5555 5557 5560 5563 5567 5570 5574 5578 5584 5592 5602 5613 5625 5637 5648 5659 5668 5677 5686 5694 5700 5705 5710 5714 5717 5721 5723 5726 5728 5730 5732 5733 5735 5737 5739 5741 5743 5745
5520 5525 5530 5535 5539 5543 5547 5550 5553 5557 5561 5564 5568 5573 5580 5588 5598 5610 5623 5635 5646 5657 5666 5675 5683 5690 5696 5701 5706 5710 5714 5717 5719 5722 5724 5726 5728 5730 5732 5734 5736 5738 5740